Home > Weather > Escuintla > Past weeks

Flag for Guatemala Past Weather in Escuintla, Guatemala — Yesterday and Last 2 Weeks

Now
75 °F

Scattered clouds.


Feels Like: 77 °F
Forecast: N/A
Wind: 7 mph from Northeast

Location: Guatemala Aeropuertola Aurora

Current Time: Jul 26, 2016 at 3:51:46 PM

Latest Report: Jul 26, 2016 at 3:00 PM


Visibility: N/A

Pressure: 30.21 "Hg

Humidity: 61%

Dew Point: 61 °F

Location of EscuintlaLocation

Past Weather in Escuintla — Graph

°F

Escuintla Temperature Yesterday

Maximum temperature yesterday: 79 °F (at 4:00 PM)
Minimum temperature yesterday: 63 °F (at 1:00 AM)
Average temperature yesterday: 69 °F

High & Low Weather Summary for the Past Weeks

 TemperatureHumidityPressure
High81 °F (Jul 21, 2:00 PM)100% (Jul 24, 7:00 AM)30.39 "Hg (Jul 24, 7:00 AM)
Low61 °F (Jul 19, 5:00 AM)45% (Jul 14, 2:00 PM)29.59 "Hg (Jul 17, 11:00 PM)
Average69 °F77%30.29 "Hg
* Reported Jul 11 2:00 PM — Jul 26 2:00 PM, Escuintla, Weather by CustomWeather, © 2016

Note: Actual official high and low records may vary slightly from our data, if they occured in-between our weather recording intervals... More about our weather records

Advertising

Escuintla Weather History for the Previous 24 Hours

Scroll right to see more
 ConditionsComfort  
Time TempWeatherWind HumidityBarometerVisibility
2:00 PM
Tue, Jul 26
77 °FScattered clouds.9 mph57%30.21 "HgN/A
1:00 PM75 °FScattered clouds.9 mph61%30.24 "HgN/A
12:00 PM73 °FPartly sunny.12 mph65%30.27 "HgN/A
11:00 AM72 °FBroken clouds.9 mph69%30.27 "HgN/A
10:00 AM70 °FPartly sunny.7 mph73%30.27 "HgN/A
9:00 AM68 °FPartly sunny.7 mph78%30.30 "HgN/A
8:00 AM66 °FPartly sunny.7 mph83%30.24 "HgN/A
7:00 AM64 °FBroken clouds.9 mph88%30.24 "HgN/A
6:00 AM63 °FPartly sunny.14 mph94%30.27 "HgN/A
5:00 AM63 °FPassing clouds.12 mph94%30.27 "HgN/A
4:00 AM63 °FPassing clouds.14 mph94%30.24 "HgN/A
3:00 AM64 °FPassing clouds.9 mph88%30.24 "HgN/A
2:00 AM64 °FPassing clouds.9 mph94%30.24 "HgN/A
1:00 AM64 °FPassing clouds.9 mph88%30.24 "HgN/A
12:00 AM66 °FPartly cloudy.12 mph88%30.27 "HgN/A
11:00 PM
Mon, Jul 25
66 °FPassing clouds.9 mph83%30.30 "HgN/A
10:00 PM66 °FPassing clouds.9 mph78%30.27 "HgN/A
9:00 PM68 °FPassing clouds.9 mph73%30.27 "HgN/A
8:00 PM70 °FPassing clouds.12 mph64%30.24 "HgN/A
7:00 PM73 °FPassing clouds.16 mph61%30.21 "HgN/A
6:00 PM75 °FScattered clouds.16 mph100%30.21 "HgN/A
5:00 PM79 °FPassing clouds.14 mph45%30.18 "HgN/A
4:00 PM79 °FScattered clouds.14 mph45%30.18 "HgN/A
3:00 PM77 °FScattered clouds.18 mph51%30.21 "HgN/A
Weather by CustomWeather, © 2016

See weather overviewHow to use our weather pages